TimePST,TemperatureF,Dew PointF,Humidity,Sea Level PressureIn,VisibilityMPH,Wind Direction,Wind SpeedMPH,Gust SpeedMPH,PrecipitationIn,Events,Conditions,WindDirDegrees,DateUTC
12:53 AM,63.0,34.0,34,30.06,10.0,SSW,16.1,25.3,N/A,,Clear,200,2012-11-29 08:53:00
1:53 AM,63.0,39.0,41,30.06,10.0,SSW,19.6,26.5,N/A,,Clear,210,2012-11-29 09:53:00
2:53 AM,63.0,42.1,46,30.06,10.0,SW,18.4,26.5,N/A,,Clear,220,2012-11-29 10:53:00
3:53 AM,64.0,43.0,46,30.04,10.0,SW,18.4,-,N/A,,Clear,230,2012-11-29 11:53:00
4:53 AM,63.0,44.1,50,30.06,10.0,SW,18.4,25.3,N/A,,Clear,220,2012-11-29 12:53:00
5:53 AM,63.0,44.1,50,30.08,10.0,SW,19.6,-,N/A,,Clear,220,2012-11-29 13:53:00
6:53 AM,64.0,44.1,48,30.10,10.0,SSW,12.7,29.9,N/A,,Partly Cloudy,210,2012-11-29 14:53:00
7:53 AM,62.6,44.6,52,30.11,10.0,SSW,12.7,-,N/A,,Partly Cloudy,200,2012-11-29 15:53:00
8:53 AM,64.0,45.0,50,30.14,10.0,SSE,12.7,-,N/A,,Mostly Cloudy,160,2012-11-29 16:53:00
9:53 AM,69.1,44.1,40,30.13,10.0,SSW,12.7,-,N/A,,Scattered Clouds,200,2012-11-29 17:53:00
10:53 AM,69.1,42.1,38,30.11,10.0,SW,18.4,26.5,N/A,,Partly Cloudy,220,2012-11-29 18:53:00
11:53 AM,71.1,39.9,32,30.09,10.0,SW,23.0,28.8,N/A,,Clear,220,2012-11-29 19:53:00
12:53 PM,71.1,41.0,34,30.06,10.0,SW,13.8,19.6,N/A,,Clear,220,2012-11-29 20:53:00
1:53 PM,69.1,41.0,36,30.05,10.0,SW,10.4,19.6,N/A,,Clear,220,2012-11-29 21:53:00
2:53 PM,69.1,39.0,33,30.03,10.0,SW,17.3,25.3,N/A,,Clear,220,2012-11-29 22:53:00
3:53 PM,68.0,39.9,36,30.03,10.0,SSW,12.7,19.6,N/A,,Clear,200,2012-11-29 23:53:00
4:53 PM,66.0,41.0,40,30.04,10.0,SSW,18.4,25.3,N/A,,Clear,200,2012-11-30 00:53:00
5:53 PM,66.0,39.9,38,30.05,10.0,WSW,15.0,21.9,N/A,,Clear,240,2012-11-30 01:53:00
6:53 PM,66.0,41.0,40,30.05,10.0,SW,21.9,27.6,N/A,,Clear,230,2012-11-30 02:53:00
7:53 PM,64.9,41.0,42,30.06,10.0,SW,13.8,20.7,N/A,,Clear,220,2012-11-30 03:53:00
8:53 PM,64.9,41.0,42,30.06,10.0,SW,17.3,-,N/A,,Clear,220,2012-11-30 04:53:00
9:53 PM,62.1,42.1,48,30.07,10.0,Variable,4.6,-,N/A,,Clear,0,2012-11-30 05:53:00
10:53 PM,62.1,41.0,46,30.06,10.0,South,12.7,-,N/A,,Clear,180,2012-11-30 06:53:00
11:53 PM,61.0,41.0,48,30.06,10.0,SSE,18.4,-,N/A,,Clear,160,2012-11-30 07:53:00